Terug naar catalogus

YZ-1 R/B

ActiefMEO
NORAD 43708·ROCKET BODY·🇨🇳 China

Gelanceerd Nov 18, 2018 vanaf Xichang Satellite Launch Center

Loading…

Volgende Passages (komende 24 uur)

TLE

VersSource: Space-Track

Epoch: Sep 13, 2026, 04:20 UTC

1 43708U 18093C   26256.18068943 -.00000004  00000-0  00000-0 0  9998
2 43708  54.1260 189.3026 0165803  53.1506 308.3427  1.77350437 50643

Volg YZ-1 R/B in realtime met AllMySat

Download on the App Store